Location: Unspecified
(0.0000°N, 0.0000°E)
Time: 16:11:47
(UTC+00:00)

Envisat - Pass Details

Date: 22 August 2017
Orbit: 764 x 766 km, 98.2° (Epoch: 18 August)

Event Time Altitude Azimuth Distance (km) Brightness Sun altitude
Exits shadow 20:16:07 13° 358° (N) 2,118 5.4 -32.6°
Drops below altitude 10° 20:16:33 10° 357° (N) 2,290 5.6 -32.7°
Sets 20:18:52 0° 354° (N) 3,213 6.5 -33.2°
